Showing default

BRO-6, 52422

Orbit data source: Space-Track

BRO-6, 52422 is a payload satellite owned by Unseen Labs (FR) in SSO that was launched on Mon, 02 May 2022 UTC via an ELECTRON launch vehicle from the Rocket Lab Launch Complex (RLLC). Payload-class satellites include a variety of spacecraft equipped with specific instruments for various scientific and technological missions. These include communications satellites like Starlink; space stations such as the ISS; scientific satellites like the Hubble; Earth observation satellites from companies like Planet Labs, Umbra, and HawkEye 360; GPS; miniature CubeSats for education and research; and military/defense satellites.

Loading next visibility...
Identifier
52422, 2022-047AE
Orbit
SSO
Last TLE update
8 hours ago
Origin
Manufacturer
GOMSpace
Mission
Operational Commercial Sigint
Bus & Motor
CUBESAT 6U, Unknown motor
Mass
10 kg wet, ~10 kg dry
Launch date (UTC)
2022-05-02 (3 years ago)
Launch vehicle
ELECTRON
Launch site
Rocket Lab Launch Complex (RLLC)
Object type
Payload
Rocket body
Debris
Shape & HBR
Box, 0.3 m
Radar Cross Section
0.080 m², Medium (>0.1 m² and < 1m²)

Expand to show TLE details & history

TLE from 8 hours ago
0 BRO-6
1 52422U 22047AE  25182.88178139  .00007405  00000-0  21198-3 0  9993
2 52422  97.3641 266.1792 0003958 244.5127 115.5707 15.36228175177168
Epoch: 2025-07-01T21:09Z
TLE epoch observation values (Epoch: 2025-07-01T21:09:45.912Z)
Latitude
-0.00008°
Longitude
28.56704°
Altitude
461.557 km
Speed
7.635 km/s
True Right ascension
17h 44m 43s
True Declination
0° 00' 00"
Sunlit
Object was in full shadow at epoch
Visualization orbit readout
Latitude
-26.68199°
Longitude
32.5914°
Altitude
467.358 km
Speed
7.631 km/s
Apparent Right ascension
21h 17m 44s
Apparent Declination
-71° 18' 19"
Sunlit
Object is in full shadow
Visualization observer readout
Local Sidereal Time
16:33:14
Azimuth
159.072° S
Elevation
-31.889°
Doppler factor
1
Orbital elements
Apogee altitude
456.922 km
Perigee altitude
451.513 km
Semi-major axis
6,832.354 km
Eccentricity
0.0004
Inclination
97.3641°
RAAN
266.1792°
Arg. of periapsis
244.5127°
True anomaly
Unknown
Mean anomaly
115.5707°
Eccentric anomaly
Unknown
Mean motion
3.84315 °/min
Orbital period
93.67 mins
BSTAR
0.00021198
Loading maneuver chart data...
Loading SW <> Apogee altitude chart data...

BRO-6 Visibility forecast

Observer location: undefined°, undefined°

Span
Click to sort rows by Start time (UTC) header in descending order
Start Az.
Max El. time (UTC)
Max El. Az.
Max El.
End time (UTC)
End Az.
5 mins2025-07-02 05:06:46.152Z135.527° SSE2025-07-02 05:09:46.152Z66.603° ENE28.06°2025-07-02 05:11:46.152Z16.882° NNE
5 mins2025-07-02 18:03:46.152Z38.983° NE2025-07-02 18:05:46.152Z101.089° ESE32.326°2025-07-02 18:08:46.152Z168.559° S
|